| time (UTC) | temp C | wind direction | speed KPH | gust KPH | rain 1hr cm | rain 24hr cm | rain mn cm | humidity % | barometer mb |
| 20260503200355 | 20 | 299 | 8.0 | 9.7 | 0.00 | 0.00 | 0.00 | 40 | 1007.3 |
| 20260503195853 | 20 | 323 | 6.4 | 8.0 | 0.00 | 0.00 | 0.00 | 46 | 1007.4 |
| 20260503195349 | 20 | 235 | 17.7 | 22.5 | 0.00 | 0.00 | 0.00 | 37 | 1007.3 |
| 20260503194847 | 20 | 349 | 8.0 | 9.7 | 0.00 | 0.00 | 0.00 | 40 | 1007.3 |
| 20260503194343 | 20 | 287 | 27.4 | 32.2 | 0.00 | 0.00 | 0.00 | 41 | 1007.4 |
| 20260503193839 | 20 | 303 | 17.7 | 17.7 | 0.00 | 0.00 | 0.00 | 39 | 1007.3 |
| 20260503193335 | 20 | 282 | 20.9 | 25.7 | 0.00 | 0.00 | 0.00 | 43 | 1007.4 |
| 20260503192831 | 20 | 309 | 9.7 | 12.9 | 0.00 | 0.00 | 0.00 | 44 | 1007.7 |
| 20260503192328 | 20 | 299 | 17.7 | 20.9 | 0.00 | 0.00 | 0.00 | 41 | 1007.5 |
| 20260503191824 | 20 | 297 | 6.4 | 9.7 | 0.00 | 0.00 | 0.00 | 41 | 1007.6 |
| 20260503191321 | 20 | 338 | 9.7 | 14.5 | 0.00 | 0.00 | 0.00 | 42 | 1007.5 |
| 20260503190818 | 20 | 225 | 9.7 | 12.9 | 0.00 | 0.00 | 0.00 | 37 | 1007.7 |
| 20260503190315 | 20 | 319 | 11.3 | 14.5 | 0.00 | 0.00 | 0.00 | 40 | 1007.6 |
| 20260503185812 | 19 | 289 | 17.7 | 20.9 | 0.00 | 0.00 | 0.00 | 41 | 1007.8 |
| 20260503185308 | 20 | 255 | 11.3 | 14.5 | 0.00 | 0.00 | 0.00 | 39 | 1007.8 |
| 20260503184807 | 19 | 241 | 14.5 | 17.7 | 0.00 | 0.00 | 0.00 | 42 | 1007.8 |
| 20260503184304 | 20 | 289 | 8.0 | 9.7 | 0.00 | 0.00 | 0.00 | 40 | 1007.9 |
| 20260503183759 | 19 | 243 | 6.4 | 8.0 | 0.00 | 0.00 | 0.00 | 40 | 1008.1 |
| 20260503183257 | 19 | 288 | 9.7 | 14.5 | 0.00 | 0.00 | 0.00 | 43 | 1007.9 |
| 20260503182754 | 20 | 267 | 9.7 | 16.1 | 0.00 | 0.00 | 0.00 | 44 | 1007.9 |
| 20260503182253 | 19 | 256 | 3.2 | 6.4 | 0.00 | 0.00 | 0.00 | 39 | 1008.1 |
| 20260503181750 | 19 | 263 | 12.9 | 16.1 | 0.00 | 0.00 | 0.00 | 40 | 1008.0 |
| 20260503181247 | 18 | 215 | 9.7 | 12.9 | 0.00 | 0.00 | 0.00 | 40 | 1008.0 |
| 20260503180743 | 18 | 285 | 17.7 | 22.5 | 0.00 | 0.00 | 0.00 | 42 | 1008.1 |
| 20260503180242 | 18 | 281 | 16.1 | 20.9 | 0.00 | 0.00 | 0.00 | 40 | 1008.1 |
| 20260503175737 | 18 | 234 | 19.3 | 24.1 | 0.00 | 0.00 | 0.00 | 43 | 1008.0 |
| 20260503175231 | 18 | 253 | 16.1 | 16.1 | 0.00 | 0.00 | 0.00 | 40 | 1008.3 |
| 20260503174726 | 19 | 266 | 12.9 | 17.7 | 0.00 | 0.00 | 0.00 | 40 | 1008.4 |
| 20260503174225 | 18 | 197 | 17.7 | 22.5 | 0.00 | 0.00 | 0.00 | 46 | 1008.3 |
| 20260503173724 | 18 | 226 | 12.9 | 14.5 | 0.00 | 0.00 | 0.00 | 43 | 1008.3 |
| 20260503173220 | 18 | 286 | 8.0 | 9.7 | 0.00 | 0.00 | 0.00 | 48 | 1008.4 |
| 20260503172718 | 18 | 237 | 11.3 | 14.5 | 0.00 | 0.00 | 0.00 | 42 | 1008.5 |
| 20260503172215 | 17 | 210 | 16.1 | 17.7 | 0.00 | 0.00 | 0.00 | 42 | 1008.4 |
| 20260503171711 | 18 | 237 | 17.7 | 20.9 | 0.00 | 0.00 | 0.00 | 45 | 1008.4 |
| 20260503171208 | 18 | 278 | 9.7 | 9.7 | 0.00 | 0.00 | 0.00 | 41 | 1008.4 |
| 20260503170706 | 17 | 239 | 16.1 | 20.9 | 0.00 | 0.00 | 0.00 | 44 | 1008.4 |
| 20260503170202 | 17 | 248 | 14.5 | 17.7 | 0.00 | 0.00 | 0.00 | 43 | 1008.5 |
| 20260503160124 | 17 | 289 | 9.7 | 12.9 | 0.00 | 0.00 | 0.00 | 41 | 1008.9 |
| 20260503150554 | 15 | 233 | 19.3 | 24.1 | 0.00 | 0.00 | 0.00 | 49 | 1009.4 |
| 20260503130944 | 12 | 158 | 8.0 | 9.7 | 0.00 | 0.00 | 0.00 | 54 | 1010.4 |
| 20260503130442 | 11 | 173 | 8.0 | 9.7 | 0.00 | 0.00 | 0.00 | 54 | 1010.3 |
| 20260503110337 | 8 | 211 | 6.4 | 8.0 | 0.00 | 0.00 | 0.00 | 62 | 1010.5 |
| 20260503090223 | 9 | 193 | 9.7 | 12.9 | 0.00 | 0.00 | 0.00 | 61 | 1011.4 |
| 20260503081151 | 9 | 216 | 4.8 | 6.4 | 0.00 | 0.00 | 0.00 | 64 | 1011.8 |
| 20260503080647 | 9 | 201 | 6.4 | 8.0 | 0.00 | 0.00 | 0.00 | 62 | 1011.8 |
| 20260503080144 | 8 | 185 | 6.4 | 8.0 | 0.00 | 0.00 | 0.00 | 66 | 1011.9 |
| 20260503072621 | 8 | 285 | 3.2 | 3.2 | 0.00 | 0.00 | 0.00 | 64 | 1012.5 |
| 20260503072118 | 9 | 300 | 3.2 | 3.2 | 0.00 | 0.00 | 0.00 | 63 | 1012.8 |
| 20260503071614 | 10 | 196 | 8.0 | 9.7 | 0.00 | 0.00 | 0.00 | 59 | 1013.2 |
| 20260503071111 | 8 | 203 | 8.0 | 9.7 | 0.00 | 0.00 | 0.00 | 61 | 1013.2 |
| 20260503070608 | 9 | 250 | 4.8 | 6.4 | 0.00 | 0.00 | 0.00 | 60 | 1013.3 |
| 20260503070106 | 9 | 228 | 4.8 | 6.4 | 0.00 | 0.00 | 0.00 | 59 | 1013.3 |
| 20260503055031 | 8 | 248 | 3.2 | 3.2 | 0.00 | 0.00 | 0.00 | 60 | 1013.3 |
| 20260503054527 | 9 | 211 | 6.4 | 6.4 | 0.00 | 0.00 | 0.00 | 59 | 1013.5 |
| 20260503054025 | 8 | 238 | 4.8 | 6.4 | 0.00 | 0.00 | 0.00 | 58 | 1013.4 |
| 20260503053523 | 8 | 209 | 8.0 | 8.0 | 0.00 | 0.00 | 0.00 | 60 | 1013.4 |
| 20260503053020 | 8 | 207 | 4.8 | 6.4 | 0.00 | 0.00 | 0.00 | 61 | 1013.5 |
| 20260503052517 | 8 | 253 | 3.2 | 3.2 | 0.00 | 0.00 | 0.00 | 61 | 1013.5 |
| 20260503052013 | 8 | 212 | 6.4 | 6.4 | 0.00 | 0.00 | 0.00 | 61 | 1013.5 |
| 20260503051509 | 8 | 208 | 6.4 | 8.0 | 0.00 | 0.00 | 0.00 | 61 | 1013.5 |
| 20260503051007 | 9 | 203 | 4.8 | 6.4 | 0.00 | 0.00 | 0.00 | 60 | 1013.7 |
| 20260503050502 | 10 | 205 | 6.4 | 8.0 | 0.00 | 0.00 | 0.00 | 58 | 1013.6 |
| 20260503050000 | 10 | 216 | 4.8 | 6.4 | 0.00 | 0.00 | 0.00 | 56 | 1013.9 |
| 20260503045457 | 10 | 227 | 4.8 | 6.4 | 0.00 | 0.00 | 0.00 | 58 | 1013.8 |
| 20260503044954 | 10 | 211 | 4.8 | 6.4 | 0.00 | 0.00 | 0.00 | 57 | 1013.8 |
| 20260503044450 | 10 | 217 | 6.4 | 8.0 | 0.00 | 0.00 | 0.00 | 55 | 1013.9 |
| 20260503043948 | 10 | 215 | 6.4 | 8.0 | 0.00 | 0.00 | 0.00 | 55 | 1013.9 |
| 20260503043444 | 10 | 200 | 9.7 | 9.7 | 0.00 | 0.00 | 0.00 | 54 | 1013.9 |
| 20260503042941 | 9 | 240 | 3.2 | 3.2 | 0.00 | 0.00 | 0.00 | 56 | 1014.0 |
| 20260503042437 | 9 | 253 | 3.2 | 3.2 | 0.00 | 0.00 | 0.00 | 58 | 1014.0 |
| 20260503041934 | 9 | 204 | 6.4 | 8.0 | 0.00 | 0.00 | 0.00 | 57 | 1014.0 |
| 20260503041431 | 9 | 209 | 6.4 | 8.0 | 0.00 | 0.00 | 0.00 | 57 | 1014.0 |
| 20260503040928 | 9 | 209 | 6.4 | 6.4 | 0.00 | 0.00 | 0.00 | 58 | 1014.1 |
| 20260503040426 | 9 | 209 | 6.4 | 8.0 | 0.00 | 0.00 | 0.00 | 57 | 1014.1 |
| 20260503035923 | 10 | 210 | 6.4 | 8.0 | 0.00 | 0.00 | 0.00 | 56 | 1014.1 |
| 20260503035420 | 10 | 220 | 4.8 | 6.4 | 0.00 | 0.00 | 0.00 | 55 | 1014.1 |
| 20260503034917 | 10 | 205 | 6.4 | 8.0 | 0.00 | 0.00 | 0.00 | 57 | 1014.2 |
| 20260503034415 | 10 | 213 | 6.4 | 8.0 | 0.00 | 0.00 | 0.00 | 57 | 1014.4 |
| 20260503033911 | 10 | 209 | 6.4 | 6.4 | 0.00 | 0.00 | 0.00 | 54 | 1014.3 |
| 20260503033409 | 10 | 250 | 3.2 | 3.2 | 0.00 | 0.00 | 0.00 | 55 | 1014.3 |
| 20260503032907 | 10 | 261 | 3.2 | 3.2 | 0.00 | 0.00 | 0.00 | 53 | 1014.4 |
| 20260503032405 | 10 | 211 | 4.8 | 6.4 | 0.00 | 0.00 | 0.00 | 52 | 1014.5 |
| 20260503031902 | 10 | 246 | 3.2 | 3.2 | 0.00 | 0.00 | 0.00 | 54 | 1014.7 |
| 20260503031400 | 10 | 217 | 4.8 | 6.4 | 0.00 | 0.00 | 0.00 | 56 | 1014.7 |
| 20260503030856 | 10 | 209 | 6.4 | 8.0 | 0.00 | 0.00 | 0.00 | 56 | 1014.8 |
| 20260503030353 | 10 | 220 | 6.4 | 6.4 | 0.00 | 0.00 | 0.00 | 54 | 1014.7 |
| 20260503025849 | 10 | 197 | 6.4 | 6.4 | 0.00 | 0.00 | 0.00 | 56 | 1014.7 |
| 20260503025347 | 10 | 197 | 4.8 | 6.4 | 0.00 | 0.00 | 0.00 | 54 | 1014.9 |
| 20260503024844 | 10 | 197 | 3.2 | 3.2 | 0.00 | 0.00 | 0.00 | 52 | 1015.1 |
| 20260503024340 | 10 | 197 | 4.8 | 6.4 | 0.00 | 0.00 | 0.00 | 51 | 1015.0 |
| 20260503023837 | 10 | 197 | 3.2 | 3.2 | 0.00 | 0.00 | 0.00 | 50 | 1014.9 |
| 20260503023335 | 10 | 208 | 4.8 | 6.4 | 0.00 | 0.00 | 0.00 | 52 | 1014.9 |
| 20260503022832 | 10 | 208 | 6.4 | 6.4 | 0.00 | 0.00 | 0.00 | 48 | 1014.9 |
| 20260503022331 | 9 | 208 | 3.2 | 3.2 | 0.00 | 0.00 | 0.00 | 57 | 1015.1 |
| 20260503021828 | 10 | 208 | 3.2 | 3.2 | 0.00 | 0.00 | 0.00 | 54 | 1015.2 |
| 20260503021325 | 10 | 208 | 1.6 | 1.6 | 0.00 | 0.00 | 0.00 | 56 | 1015.1 |
| 20260503020822 | 9 | 245 | 3.2 | 3.2 | 0.00 | 0.00 | 0.00 | 56 | 1015.2 |
| 20260503020320 | 10 | 279 | 1.6 | 1.6 | 0.00 | 0.00 | 0.00 | 57 | 1015.3 |
| 20260503015816 | 10 | 276 | 1.6 | 1.6 | 0.00 | 0.00 | 0.00 | 54 | 1015.2 |
| 20260503015313 | 10 | 275 | 1.6 | 1.6 | 0.00 | 0.00 | 0.00 | 56 | 1015.4 |
| 20260503014809 | 10 | 279 | 1.6 | 1.6 | 0.00 | 0.00 | 0.00 | 54 | 1015.1 |
| 20260503014307 | 11 | 217 | 3.2 | 3.2 | 0.00 | 0.00 | 0.00 | 51 | 1015.1 |
| 20260503013804 | 11 | 217 | 6.4 | 6.4 | 0.00 | 0.00 | 0.00 | 49 | 1015.1 |
| 20260503013301 | 12 | 267 | 3.2 | 3.2 | 0.00 | 0.00 | 0.00 | 50 | 1015.2 |
| 20260503012758 | 12 | 261 | 3.2 | 3.2 | 0.00 | 0.00 | 0.00 | 44 | 1015.3 |
| 20260503012255 | 12 | 251 | 3.2 | 3.2 | 0.00 | 0.00 | 0.00 | 45 | 1015.3 |
| 20260503011752 | 12 | 254 | 3.2 | 3.2 | 0.00 | 0.00 | 0.00 | 43 | 1015.4 |
| 20260503011249 | 12 | 258 | 1.6 | 3.2 | 0.00 | 0.00 | 0.00 | 44 | 1015.4 |
| 20260503010745 | 12 | 258 | 3.2 | 3.2 | 0.00 | 0.00 | 0.00 | 44 | 1015.4 |
| 20260503010242 | 13 | 247 | 3.2 | 3.2 | 0.00 | 0.00 | 0.00 | 43 | 1015.5 |
| 20260503005740 | 13 | 256 | 1.6 | 3.2 | 0.00 | 0.00 | 0.00 | 42 | 1015.3 |
| 20260503005237 | 13 | 317 | 1.6 | 1.6 | 0.00 | 0.00 | 0.00 | 40 | 1015.6 |
| 20260503004733 | 13 | 261 | 4.8 | 6.4 | 0.00 | 0.00 | 0.00 | 39 | 1015.4 |
| 20260503004231 | 13 | 291 | 3.2 | 3.2 | 0.00 | 0.00 | 0.00 | 39 | 1015.7 |
| 20260503003728 | 13 | 277 | 3.2 | 3.2 | 0.00 | 0.00 | 0.00 | 39 | 1015.8 |
| 20260503003225 | 13 | 293 | 1.6 | 1.6 | 0.00 | 0.00 | 0.00 | 39 | 1015.8 |
| 20260503002722 | 13 | 249 | 6.4 | 8.0 | 0.00 | 0.00 | 0.00 | 38 | 1015.8 |
| 20260503002219 | 13 | 296 | 3.2 | 3.2 | 0.00 | 0.00 | 0.00 | 38 | 1016.0 |
| 20260503001715 | 13 | 269 | 4.8 | 8.0 | 0.00 | 0.00 | 0.00 | 38 | 1015.7 |
| 20260503001212 | 13 | 260 | 4.8 | 6.4 | 0.00 | 0.00 | 0.00 | 39 | 1015.8 |
| 20260503000710 | 14 | 280 | 9.7 | 12.9 | 0.00 | 0.00 | 0.00 | 38 | 1015.7 |
| 20260503000207 | 14 | 314 | 4.8 | 6.4 | 0.00 | 0.00 | 0.00 | 36 | 1015.7 |
| 20260502235703 | 14 | 266 | 12.9 | 17.7 | 0.00 | 0.00 | 0.00 | 37 | 1015.7 |
| 20260502235201 | 15 | 262 | 4.8 | 9.7 | 0.00 | 0.00 | 0.00 | 38 | 1015.8 |
| 20260502234657 | 15 | 327 | 12.9 | 17.7 | 0.00 | 0.00 | 0.00 | 36 | 1016.0 |
| 20260502234155 | 14 | 252 | 8.0 | 12.9 | 0.00 | 0.00 | 0.00 | 37 | 1016.2 |
| 20260502233650 | 15 | 315 | 4.8 | 6.4 | 0.00 | 0.00 | 0.00 | 36 | 1016.0 |
| 20260502233147 | 15 | 308 | 6.4 | 8.0 | 0.00 | 0.00 | 0.00 | 35 | 1016.2 |
| 20260502232643 | 15 | 299 | 4.8 | 6.4 | 0.00 | 0.00 | 0.00 | 38 | 1016.0 |
| 20260502232141 | 15 | 298 | 9.7 | 9.7 | 0.00 | 0.00 | 0.00 | 38 | 1016.0 |
| 20260502231637 | 15 | 285 | 8.0 | 12.9 | 0.00 | 0.00 | 0.00 | 35 | 1016.1 |
| 20260502231135 | 15 | 273 | 6.4 | 8.0 | 0.00 | 0.00 | 0.00 | 38 | 1015.8 |
| 20260502230633 | 15 | 271 | 11.3 | 14.5 | 0.00 | 0.00 | 0.00 | 35 | 1016.2 |
| 20260502230131 | 15 | 330 | 9.7 | 12.9 | 0.00 | 0.00 | 0.00 | 35 | 1016.4 |
| 20260502225626 | 15 | 263 | 8.0 | 8.0 | 0.00 | 0.00 | 0.00 | 34 | 1016.4 |
| 20260502225124 | 15 | 268 | 8.0 | 9.7 | 0.00 | 0.00 | 0.00 | 33 | 1016.3 |
| 20260502224620 | 15 | 308 | 14.5 | 20.9 | 0.00 | 0.00 | 0.00 | 35 | 1016.3 |
| 20260502224117 | 15 | 233 | 4.8 | 8.0 | 0.00 | 0.00 | 0.00 | 35 | 1016.2 |
| 20260502223615 | 16 | 290 | 6.4 | 8.0 | 0.00 | 0.00 | 0.00 | 35 | 1016.4 |
| 20260502223113 | 15 | 285 | 6.4 | 8.0 | 0.00 | 0.00 | 0.00 | 36 | 1016.4 |
| 20260502222610 | 15 | 292 | 14.5 | 17.7 | 0.00 | 0.00 | 0.00 | 35 | 1016.3 |
| 20260502222106 | 15 | 288 | 11.3 | 12.9 | 0.00 | 0.00 | 0.00 | 33 | 1016.5 |
| 20260502221602 | 15 | 243 | 17.7 | 20.9 | 0.00 | 0.00 | 0.00 | 33 | 1016.3 |
| 20260502221100 | 15 | 263 | 19.3 | 29.0 | 0.00 | 0.00 | 0.00 | 34 | 1016.6 |
| 20260502220555 | 15 | 326 | 14.5 | 16.1 | 0.00 | 0.00 | 0.00 | 35 | 1016.6 |
| 20260502220052 | 15 | 273 | 9.7 | 12.9 | 0.00 | 0.00 | 0.00 | 34 | 1016.7 |
| 20260502215549 | 15 | 277 | 6.4 | 8.0 | 0.00 | 0.00 | 0.00 | 32 | 1016.5 |
| 20260502215046 | 15 | 206 | 12.9 | 17.7 | 0.00 | 0.00 | 0.00 | 33 | 1016.7 |
| 20260502214543 | 15 | 226 | 17.7 | 22.5 | 0.00 | 0.00 | 0.00 | 33 | 1016.9 |
| 20260502214041 | 15 | 271 | 14.5 | 16.1 | 0.00 | 0.00 | 0.00 | 34 | 1016.8 |
| 20260502213537 | 15 | 241 | 14.5 | 17.7 | 0.00 | 0.00 | 0.00 | 31 | 1016.7 |
| 20260502213035 | 15 | 255 | 6.4 | 8.0 | 0.00 | 0.00 | 0.00 | 34 | 1016.8 |
| 20260502212534 | 15 | 272 | 3.2 | 6.4 | 0.00 | 0.00 | 0.00 | 38 | 1017.1 |
| 20260502212031 | 15 | 266 | 14.5 | 17.7 | 0.00 | 0.00 | 0.00 | 31 | 1016.8 |
| 20260502211526 | 15 | 248 | 11.3 | 12.9 | 0.00 | 0.00 | 0.00 | 33 | 1016.8 |
| 20260502211024 | 15 | 253 | 16.1 | 22.5 | 0.00 | 0.00 | 0.00 | 32 | 1017.0 |
| 20260502210521 | 15 | 257 | 11.3 | 17.7 | 0.00 | 0.00 | 0.00 | 32 | 1017.0 |
| 20260502210018 | 15 | 236 | 14.5 | 17.7 | 0.00 | 0.00 | 0.00 | 34 | 1017.2 |
| 20260502205514 | 15 | 277 | 9.7 | 14.5 | 0.00 | 0.00 | 0.00 | 32 | 1017.2 |
| 20260502205011 | 14 | 259 | 6.4 | 6.4 | 0.00 | 0.00 | 0.00 | 35 | 1017.4 |
| 20260502204508 | 13 | 265 | 3.2 | 6.4 | 0.00 | 0.00 | 0.00 | 35 | 1017.4 |
| 20260502204006 | 15 | 300 | 9.7 | 14.5 | 0.00 | 0.00 | 0.00 | 32 | 1017.5 |
| 20260502203503 | 15 | 242 | 19.3 | 24.1 | 0.00 | 0.00 | 0.00 | 31 | 1017.3 |
| 20260502203000 | 15 | 276 | 6.4 | 8.0 | 0.00 | 0.00 | 0.00 | 33 | 1017.3 |
| 20260502202456 | 15 | 244 | 17.7 | 24.1 | 0.00 | 0.00 | 0.00 | 33 | 1017.5 |
| 20260502201954 | 15 | 312 | 4.8 | 6.4 | 0.00 | 0.00 | 0.00 | 32 | 1017.5 |
| 20260502201450 | 15 | 272 | 9.7 | 12.9 | 0.00 | 0.00 | 0.00 | 37 | 1017.7 |
| 20260502200947 | 14 | 281 | 17.7 | 22.5 | 0.00 | 0.00 | 0.00 | 32 | 1017.7 |